Regional Weather Roundup
Issued by NWS Newport/Morehead, NC

Current Version | Previous Version | Text Only | Print | Product List | Glossary On
Versions: 1 2 3 4 5 6 7 8 9 10 11 12 13 14 15 16 17 18 19 20 21 22 23 24 25 26 27 28 29 30 31 32 33 34 35 36 37 38 39 40 41 42 43 44 45 46 47 48 49 50
043
ASUS42 KMHX 241025
RWRMHX
WEATHER ROUNDUP FOR EASTERN NORTH CAROLINA
NATIONAL WEATHER SERVICE NEWPORT/MOREHEAD CITY NC
500 AM EST FRI FEB 24 2017

NOTE: "FAIR" INDICATES FEW OR NO CLOUDS BELOW 12,000 FEET
WITH NO SIGNIFICANT WEATHER AND/OR OBSTRUCTIONS TO VISIBILITY

NCZ015>017-031-032-045>047-102-103-241100-
NORTH COAST

CITY           SKY/WX    TMP DP  RH WIND       PRES   REMARKS
EDENTON        CLEAR     56  54  94 CALM      29.93S
ELIZABETH CITY CLEAR     54  53  97 E5        29.93F
KITTY HAWK     NOT AVBL
MANTEO         CLOUDY    60  60 100 E6        29.95R

$$

NCZ045>047-081-094-103-104-241100-
CENTRAL COAST

CITY           SKY/WX    TMP DP  RH WIND       PRES   REMARKS
FRISCO         CLOUDY    63  60  90 N3        29.92S

$$

NCZ095-097-098-100-101-241100-
SOUTHERN COAST

CITY           SKY/WX    TMP DP  RH WIND       PRES   REMARKS
BEAUFORT       CLOUDY    60  58  92 NE6       29.91R
CEDAR ISLAND   NOT AVBL
JACKSONVILLE   CLOUDY    57  57 100 CALM      29.90S
PINEY ISLAND   MOSUNNY  N/A N/A N/A N6        29.91R
WILMINGTON     PTCLDY    54  54 100 NE3       29.88F FOG


$$

NCZ011>013-027>030-043-044-078>080-089-090>093-098-241100-
COASTAL PLAIN

CITY           SKY/WX    TMP DP  RH WIND       PRES   REMARKS
AHOSKIE          N/A     46  45  97 CALM      29.93S
CLINTON        CLEAR     52  52 100 CALM      29.91S
ELIZABETHTOWN  CLEAR     53  53 100 CALM      29.90S
GOLDSBORO      CLEAR     52  52 100 CALM      29.90S
GREENVILLE     FOG       48  48 100 CALM      29.94S VSB 1/2
HAVELOCK       NOT AVBL
KENANSVILLE    FOG       50  48  93 CALM      29.91S VSB 3/4
KINSTON        FOG       49  49 100 CALM      29.92S VSB 1/4
NEW BERN       FOG       52  52 100 CALM      29.92S VSB 3/4
RICHLANDS      FOG       52  52 100 N3        29.91S VSB 1/2
ROCKY MOUNT    FOG       48  48 100 CALM      29.93R VSB 1/2
WASHINGTON       N/A     55  54  99 CALM      29.92S
WHITEVILLE     CLEAR     54  53  96 CALM      29.89S

$$

AMZ130-135-150-152-154-156-158-170-250-252-270-ANZ085-086-088-633-658-670-241100-
MARINE OBSERVATIONS

STATION/POSITION TIME  TEMP    WIND        PRES    WAVE   SWELL
                       AIR SEA DIR/SP/G            HT/PER HT/PER
                 (UTC) (F)     (DEG/KT/KT) (MB)    (FT/S) (FT/S)
CHESAPEAKE LIGHT NOT AVBL
64 E VA BEACH    0950   57 54   90/  6/  8 1013.8    4/11   3/11
DUCK             1000   53 49   70/  6/  7 1013.4
2 E DUCK         1000      50                N/A     4/11   2/11
OREGON INLET     1000   59 56   90/  4/  6 1013.8
13E OREGON INLT  NOT AVBL
HATTERAS CG      1000   62 62   10/  5/  5 1012.7
DIAMOND BUOY     0950   70 73  120/ 14/ 17 1012.7    7/ 8   7/ 8
CAPE LOOKOUT     1000   62      10/  6/  7 1012.2
BEAUFORT LAB     1000   60 58   10/  5/  6 1011.7
30 SE NEW RVR IN 1008   67      50/  8/ 12 1012.0
30 SE NEW RVR IN 1013      70                N/A     8/10   3/11
27 SE WRIGHTSVLE 1008   66 66   30/  8/ 14 1010.8
5 SE WRIGHTSVLE  NOT AVBL
225 S CAPE HAT   0950   69 69   80/ 23/ 27 1007.7   11/ 9   7/ 9
41 SE CHARLESTON 0950   70 70   40/  8/ 10 1009.7    9/10   8/10

$$




USA.gov is the U.S. government's official web portal to all federal, state and local government web resources and services.